Weather History for Milford, UT

Change the Weather History Date:

Wednesday, November 21, 2012

  Actual Average Record
Temperature  
Mean Temperature 46 °F -  
Max Temperature 63 °F 47 °F 66 °F (2006)
Min Temperature 30 °F 21 °F 15 °F (2005)
Degree Days  
Heating Degree Days 18    
Moisture  
Dew Point 25 °F    
Average Humidity 42    
Maximum Humidity 70    
Minimum Humidity 11    
Precipitation  
Precipitation 0.00 in - - ()
Sea Level Pressure  
Sea Level Pressure 30.02 in    
Wind  
Wind Speed 15 mph (SSW)    
Max Wind Speed 29 mph    
Max Gust Speed 36 mph    
Visibility 10 miles    
Events      
Averages and records for this station are not official NWS values.
T = Trace of Precipitation, MM = Missing Value Source: NWS Daily Summary

Daily Weather History Graph

Daily Weather History Graph

Search for Another Location

Airport:

Trip Planner

Search our weather history database for the weather conditions in past years. The results will help you decide how hot, cold, wet, or windy it might be!

Date:

Astronomy

Nov. 21, 2012 Rise Set
Actual Time 7:20 AM MST 5:15 PM MST
Civil Twilight 6:52 AM MST 5:43 PM MST
Nautical Twilight 6:19 AM MST 6:16 PM MST
Astronomical Twilight 5:48 AM MST 6:47 PM MST
Moon 1:29 PM MST (11/21) 12:48 AM MST (11/21)
Length of Visible Light 10h 51m
Length of Day
9h 54m
Waxing Gibbous, 62% of the Moon is Illuminated
Nov 21
Waxing Gibbous
Nov 28
Full
Dec 6
Last Quarter
Dec 13
New
Dec 19
First Quarter

Hourly Weather History & Observations

Time (MST) Temp. Windchill Dew Point Humidity Pressure Visibility Wind Dir Wind Speed Gust Speed Precip Events Conditions
12:52 AM 39.9 °F 31.8 °F 27.0 °F 60% 30.05 in 10.0 mi SSW 15.0 mph - N/A   Clear
1:52 AM 39.9 °F 32.5 °F 26.1 °F 58% 30.03 in 10.0 mi SW 12.7 mph - N/A   Clear
2:52 AM 39.0 °F 31.0 °F 26.1 °F 60% 30.02 in 10.0 mi WSW 13.8 mph - N/A   Clear
3:52 AM 36.0 °F 27.1 °F 26.1 °F 67% 30.02 in 10.0 mi WSW 13.8 mph - N/A   Clear
4:52 AM 37.0 °F 28.1 °F 26.1 °F 65% 30.03 in 10.0 mi SW 15.0 mph - N/A   Clear
5:52 AM 34.0 °F 27.2 °F 25.0 °F 70% 30.07 in 10.0 mi South 8.1 mph - N/A   Clear
6:52 AM 35.1 °F 26.4 °F 26.1 °F 70% 30.07 in 10.0 mi SW 12.7 mph - N/A   Clear
7:52 AM 39.0 °F 32.3 °F 26.1 °F 60% 30.08 in 10.0 mi SW 10.4 mph - N/A   Clear
8:52 AM 43.0 °F 36.8 °F 27.0 °F 53% 30.07 in 10.0 mi SSW 11.5 mph - N/A   Clear
9:52 AM 48.9 °F - 28.0 °F 44% 30.06 in 10.0 mi SSW 17.3 mph - N/A   Clear
10:52 AM 54.0 °F - 27.0 °F 35% 30.04 in 10.0 mi SSW 21.9 mph 26.5 mph N/A   Clear
11:52 AM 57.0 °F - 27.0 °F 32% 30.02 in 10.0 mi SSW 17.3 mph - N/A   Clear
12:52 PM 60.1 °F - 23.0 °F 24% 29.98 in 10.0 mi SSW 23.0 mph 29.9 mph N/A   Clear
1:52 PM 62.1 °F - 21.0 °F 21% 29.95 in 10.0 mi SSW 24.2 mph 34.5 mph N/A   Clear
2:52 PM 62.1 °F - 21.9 °F 21% 29.92 in 10.0 mi SSW 28.8 mph 35.7 mph N/A   Clear
3:52 PM 60.1 °F - 21.0 °F 22% 29.94 in 10.0 mi SSW 24.2 mph 32.2 mph N/A   Clear
4:52 PM 57.0 °F - 23.0 °F 27% 29.96 in 10.0 mi SSW 21.9 mph 28.8 mph N/A   Clear
5:52 PM 55.0 °F - 23.0 °F 29% 29.99 in 10.0 mi SSW 20.7 mph 26.5 mph N/A   Clear
6:52 PM 48.9 °F - 25.0 °F 39% 30.04 in 10.0 mi SSE 13.8 mph - N/A   Clear
7:52 PM 46.9 °F - 26.1 °F 44% 30.05 in 10.0 mi SSE 11.5 mph - N/A   Clear
8:52 PM 46.9 °F - 25.0 °F 42% 30.04 in 10.0 mi South 17.3 mph - N/A   Clear
9:52 PM 48.0 °F - 24.1 °F 39% 30.04 in 10.0 mi South 15.0 mph - N/A   Clear
10:52 PM 44.1 °F 39.0 °F 26.1 °F 49% 30.04 in 10.0 mi South 9.2 mph - N/A   Clear
11:52 PM 43.0 °F 36.4 °F 25.0 °F 49% 30.04 in 10.0 mi SW 12.7 mph - N/A   Clear